www.pogodaiklimat.ru

Погода и климат >> Архив погоды >> Индия >> Мадхья-Прадеш >> Джабалпер


ПОГОДА в Джабалпере

  • Прогноз погоды в Джабалпере
  • Монитор погоды в Джабалпере

АРХИВ ПОГОДЫ в Джабалпере

Время (UTC), дата Ветер
(напр.,м/с)
 
Видим.   Явления Облачность Т
(С)
Тd
(С)
f
(%)
Тe
(С)
Тes
(С)
Комфортность P
(гПа)
Po
(гПа)
Тmin
(С)
Tmax
(С)
R
(мм)
R24
(мм)
S
(см)
09 12.08 З 2 4000 м в посл. час морось 10/8 300 м
[Frnb Ac trans]
+28.0 +25.2 85 +41 +42 опасность
перегрева
1000.4 956.8 0.8
12 12.08 З 2 4000 м 9/5 600 м
[Sc Ac trans Ci fib]
+28.6 +24.6 79 +41 +41 опасность
перегрева
998.6 955.1 +29.2 0.8
15 12.08 З 1 4000 м 8/5 600 м
[Sc Ac trans]
+27.6 +24.7 84 +39 +39 очень
душно
1000.9 957.2 0.8
18 12.08 штиль 0 2000 м 9/6 300 м
[St Ac trans]
+26.6 +24.9 90 +38 +38 очень
душно
1001.3 957.4 0.8
21 12.08 штиль 0 2000 м 9/6 300 м
[St Ac trans]
+26.0 +25.1 95 +37 +37 очень
душно
999.4 955.5 0.8
00 13.08 штиль 0 4000 м 8/5 600 м
[Sc Ci fib]
+25.6 +24.1 91 +35 +35 очень
душно
999.5 955.6 0.8
03 13.08 З 1 4000 м мгла 10/6 300 м
[Frnb As op]
+26.2 +24.5 90 +37 +38 очень
душно
1001.1 957.2 +25.4 0.8
06 13.08 штиль 0 4000 м слаб. морось {дождь} 10/8 300 м
[Frnb As op]
+25.4 +25.1 98 +36 +37 очень
душно
1001.1 957.1 8
09 13.08 штиль 0 4000 м дождь {морось} 10/8 300 м
[Frnb As op]
+26.0 +25.7 98 +38 +39 очень
душно
1000.6 956.7 12
12 13.08 штиль 0 4000 м слаб. дождь {морось} 10/8 300 м
[Frnb As op]
+24.2 +23.9 98 +33 +33 очень
душно
999.3 955.2 +26.8 56
15 13.08 штиль 0 4000 м мгла {гроза, дождь} 9/6 300 м
[Frnb Ac trans]
+25.0 +24.4 96 +35 +35 очень
душно
1001.4 957.3 57
18 13.08 штиль 0 4000 м мгла {дождь} 10/8 300 м
[Frnb Ac trans]
+24.6 +24.3 98 +34 +34 очень
душно
1001.5 957.3 57
21 13.08 штиль 0 4000 м слаб. морось 10/8 300 м
[Frnb Ac trans]
+24.6 +24.0 96 +34 +34 очень
душно
1001.2 957.0 57
00 14.08 штиль 0 4000 м слаб. дождь {морось} 10/8 240 м
[Frnb Ac trans]
+24.4 +24.2 99 +34 +34 очень
душно
999.4 955.3 60
03 14.08 штиль 0 1000 м дождь 10/6 240 м
[Frnb As op]
+24.6 +24.3 98 +34 +35 очень
душно
999.9 955.8 +24.0 62
06 14.08 З 2 2000 м {дождь} 10/5 240 м
[Frnb As op]
+25.6 +25.0 96 +36 +39 очень
душно
1000.0 956.0 6
09 14.08 З 2 1000 м слаб. дождь 10/8 180 м
[Frnb As op]
+25.0 +24.4 96 +35 +35 очень
душно
998.2 954.2 25
12 14.08 штиль 0 1000 м слаб. дождь 10/8 180 м
[Frnb As op]
+24.4 +24.4 100 +34 +34 очень
душно
998.1 954.0 +26.2 60
15 14.08 З 2 1000 м дождь 10/8 180 м
[Frnb As op]
+24.0 +23.8 99 +33 +33 очень
душно
1000.3 956.1 122
18 14.08 З 1 1000 м слаб. дождь 10/8 180 м
[Frnb As op]
+24.0 +23.7 98 +33 +33 очень
душно
1001.2 957.0 193
21 14.08 З 1 1000 м в посл. час морось 10/8 180 м
[Frnb As op]
+24.6 +21.7 84 +31 +31 очень
душно
1004.6 940.9 4
00 15.08 З 1 1000 м мгла {дождь} 10/8 240 м
[Frnb As op]
+22.6 +21.7 95 +30 +30 очень
душно
1000.2 955.8 198
03 15.08 Ю 2 1000 м слаб. морось 10/8 180 м
[Frnb As op]
+23.4 +22.5 95 +32 +33 очень
душно
1002.0 957.6 +22.0 200
06 15.08 Ю 3 1000 м слаб. дождь {морось} 10/8 180 м
[Frnb As op]
+24.4 +23.8 96 +33 +34 очень
душно
1003.0 958.7 4
09 15.08 З 2 2000 м мгла 9/6 240 м
[Frnb Ac trans]
+25.4 +23.3 88 +34 +38 очень
душно
1001.3 957.3 4
12 15.08 ЮЗ 2 2000 м слаб. морось {дождь} 10/8 240 м
[Frnb Ac trans]
+25.6 +23.6 89 +35 +35 очень
душно
1000.8 956.8 +25.9 4
15 15.08 штиль 0 4000 м {морось} 6/5 600 м
[Sc Ac trans]
+24.8 +23.0 90 +33 +33 очень
душно
1002.5 958.3 4
18 15.08 Ю 2 4000 м мгла 5/0
[Ac trans]
+24.2 +22.7 91 +32 +32 очень
душно
1003.4 959.1 4
21 15.08 Ю 2 4000 м 5/5 600 м
[Sc Ac trans]
+24.0 +22.5 91 +31 +31 очень
душно
1002.4 958.1 4
00 16.08 штиль 0 4000 м мгла 3/3 600 м
[Sc]
+24.0 +23.1 95 +32 +32 очень
душно
1002.0 957.7 4
03 16.08 Ю 2 4000 м мгла 8/6 300 м
[St Ac trans]
+25.8 +23.5 87 +35 +37 очень
душно
1003.2 959.1 +23.6 4
06 16.08 Ю 2 4000 м 6/6 600 м
[Sc diur, vesp]
+29.0 +23.9 74 +40 +48 очень
душно
1002.6 959.0
09 16.08 штиль 0 4000 м мгла {дождь} 8/5 600 м
[Sc Ac trans]
+27.4 +23.9 81 +38 +44 очень
душно
1002.1 958.3 2
12 16.08 СЗ 2 4000 м мгла {дождь} 6/5 600 м
[Sc Ac trans]
+29.0 +23.5 72 +39 +40 очень
душно
1000.1 956.6 +30.3 2
15 16.08 штиль 0 4000 м ясно +26.4 +24.4 89 +37 +37 очень
душно
1002.3 958.4 2
18 16.08 штиль 0 4000 м слаб. дождь 9/5 600 м
[Sc Ac trans]
+25.0 +24.1 95 +34 +34 очень
душно
1003.7 959.5 8
00 17.08 штиль 0 2000 м мгла {дождь} 10/6 240 м
[Frnb As op]
+24.2 +23.0 93 +32 +32 очень
душно
1002.4 958.1 8
03 17.08 Ю 2 4000 м мгла 9/6 300 м
[St Ac trans]
+25.4 +23.3 88 +34 +36 очень
душно
1003.7 959.5 +24.0 8
06 17.08 СЗ 2 4000 м 8/6 600 м
[Sc diur, vesp]
+27.4 +23.3 78 +37 +44 очень
душно
1004.7 960.8
09 17.08 З 1 4000 м 8/6 600 м
[Sc diur, vesp Ci fib]
+29.4 +23.9 72 +40 +47 очень
душно
1003.0 959.4
12 17.08 З 1 4000 м 6/6 600 м
[Sc diur, vesp Ci fib]
+30.0 +23.7 69 +41 +42 опасность
перегрева
1001.6 958.2 +30.9
15 17.08 штиль 0 4000 м 4/4 750 м
[Sc]
+27.8 +24.0 80 +39 +39 очень
душно
1003.7 959.9
18 17.08 штиль 0 4000 м 4/0
[Ac trans]
+26.0 +24.3 90 +36 +36 очень
душно
1004.7 960.6
21 17.08 штиль 0 4000 м 4/0
[Ac trans]
+25.8 +23.8 89 +35 +35 очень
душно
1003.1 959.0
00 18.08 штиль 0 4000 м 4/0
[Ac trans]
+25.0 +22.9 88 +33 +33 очень
душно
1004.5 960.3
03 18.08 штиль 0 4000 м мгла 8/4 600 м
[Sc Ac trans]
+26.6 +24.0 86 +37 +41 очень
душно
1006.1 962.0 +24.5
06 18.08 СЗ 1 4000 м 8/6 600 м
[Sc diur, vesp Ac trans]
+29.2 +24.0 74 +41 +47 опасность
перегрева
1005.4 961.7
09 18.08 З 4 4000 м 8/5 900 м
[Cu med, cong Ci fib]
+31.0 +23.8 66 +43 +47 опасность
перегрева
1003.2 959.9
12 18.08 З 3 4000 м 9/5 750 м
[Sc Ac trans]
+29.4 +24.5 75 +42 +42 опасность
перегрева
1002.7 959.2 +31.8
15 18.08 З 1 4000 м зарница {морось} 8/5 300 м
[Frnb Ac trans]
+27.0 +24.4 86 +38 +38 очень
душно
1005.1 961.1 0.0
18 18.08 З 1 4000 м 9/6 300 м
[Frnb Ac trans]
+25.6 +23.9 90 +35 +35 очень
душно
1005.5 961.3 0.0
21 18.08 штиль 0 4000 м 8/5 300 м
[St Ac trans]
+25.0 +23.8 93 +34 +34 очень
душно
1004.6 960.3 0.0
00 19.08 штиль 0 4000 м мгла 9/6 300 м
[St Ac trans]
+25.0 +23.5 91 +34 +34 очень
душно
1004.7 960.4 0.0
03 19.08 З 1 2000 м мгла 10/8 240 м
[Frnb As op]
+25.4 +23.3 88 +34 +34 очень
душно
1006.4 962.1 +24.5 0.0
06 19.08 СЗ 6 4000 м мгла 10/8 240 м
[Frnb As op]
+28.0 +23.7 77 +38 +39 очень
душно
1005.6 961.7

 

Местоположение метеостанции Джабалпер (Мадхья-Прадеш, Индия): широта 23.20 долгота 79.95 высота над уровнем моря 393 м.

В архиве по умолчанию представлена погода в Джабалпере за последнюю неделю. Архивные данные за месяц целиком и за предыдущие месяцы, начиная с января 2011 года, Вы можете получить, выбрав интересующий диапазон дат из раскрывающегося списка и нажав кнопку "Ввод!".


*Определитесь, кто Вы:
робот инопланетянин человек

Внимание! Время в таблицах - всемирное. Для получения местного времени необходимо прибавить поправку, которая равна 5.5 ч.

Смотрите также архив погоды в соседних городах и на ближайших метеорологических станциях:

Погода в Мандле (Мадхья-Прадеш, Индия) (81 км)
Погода в Нарсингпуре (Мадхья-Прадеш, Индия) (84 км)
Погода в Дамо (Мадхья-Прадеш, Индия) (87 км)
Погода в Умарии (Мадхья-Прадеш, Индия) (102 км)
Погода в Сеони (Мадхья-Прадеш, Индия) (131 км)
Погода в Сагаре (Мадхья-Прадеш, Индия) (142 км)
Погода в Малейнджкханде (Мадхья-Прадеш, Индия) (154 км)
Погода в Чхиндваре (Мадхья-Прадеш, Индия) (156 км)
Погода в Пачмарае (Мадхья-Прадеш, Индия) (176 км)
Погода в Сатне (Мадхья-Прадеш, Индия) (177 км)

Пояснения к столбцам:

Ветер - указаны скорость ветра в м/с - средняя за 10 мин, порывы в срок и между сроками (в фигурных скобках) и направление, откуда дует ветер: С - северный, СВ - северо-восточный, В - восточный, ЮВ - юго-восточный, Ю - южный, ЮЗ - юго-западный, З - западный, СЗ - северо-западный.
Видимость - горизонтальная дальность видимости в метрах или километрах. При видимости от 1 до 10 км при отсутствии осадков обычно наблюдается дымка, при ухудшении видимости до 1 км и менее - туман. В сухую погоду видимость может ухудшаться дымом, пылью или мглою.
Явления - указаны атмосферные явления, наблюдавшиеся в срок или в последний час перед сроком; фигурными скобками обозначены явления, наблюдавшиеся между сроками (за 1-3 часа до срока); квадратными скобками обозначены град или гололедные отложения с указанием их диаметра в мм.
Облачность - указаны через наклонную черту общая и нижняя облачность в баллах и высота нижней границы облаков в метрах; квадратными скобками обозначены формы облаков: Ci - перистые, Cs - перисто-слоистые, Cc - перисто-кучевые, Ac - высококучевые, As - высокослоистые, Sc - слоисто-кучевые, Ns - слоисто-дождевые, Cu - кучевые, Cb - кучево-дождевые. Подробнее классификацию облаков см. в Атласе облаков (PDF).
T - Температура воздуха - температура, измеренная на высоте 2 м над землей.
Td - Температура точки росы - температура, при понижении до которой содержащийся в воздухе водяной пар достигнет насыщения.
f - Относительная влажность воздуха - влажноcть воздуха, измеренная на высоте 2 м над землей.
Te - Эффективная температура - температура, которую ощущает одетый по сезону человек в тени. Характеристика душности погоды. При расчете учитывается влияние влажности воздуха и скорости ветра на теплоощущения человека.
Tes - Эффективная температура на солнце - температура, которую ощущает человек, с поправкой на солнечный нагрев. Характеристика знойности погоды. Зависит от высоты солнца над горизонтом, облачности и скорости ветра. Ночью, в пасмурную погоду, а также при ветре 12 м/с и более поправка равна нулю.
P - Атмосферное давление - приведенное к уровню моря атмосферное давление.
Po - Атмосферное давление - измеренное на уровне метеостанции атмосферное давление.
Tmin - Минимальная температура - минимум температуры воздуха на высоте 2 м над землей.
Tmax - Максимальная температура - максимум температуры воздуха на высоте 2 м над землей.
R - Количество осадков - Количество выпавших осадков за период времени, мм. При наведении курсора мыши на число - период времени, за который выпало указанное количество осадков.
R24 - Количество осадков - Количество выпавших осадков за 24 часа, мм.
S - Снежный покров - Высота снежного покрова, см. При наведении курсора мыши на число - состояние снежного покрова и степень покрытия местности в баллах.